This is the latest recevied weather packets stored in our database for station/object K9NZF-2. If no packets are shown the sender has not sent any weather packets the latest 1 day(s).
| Time | Temp. | Humidity | Pressure | Rain* | Wind** | Luminosity | Snow |
|---|---|---|---|---|---|---|---|
| 1778095366 | 12.22° C | 62% | 975.3 hPa | 0 mm | - | - | - |
| 1778095124 | 12.22° C | 59% | 975.3 hPa | 0 mm | - | - | - |
| 1778094944 | 12.22° C | 58% | 975.4 hPa | 0 mm | - | - | - |
| 1778094886 | 12.22° C | 59% | 975.3 hPa | 0 mm | - | - | - |
| 1778094824 | 12.22° C | 59% | 975.4 hPa | 0 mm | - | - | - |
| 1778094458 | 12.22° C | 61% | 975.4 hPa | 0 mm | - | - | - |
| 1778094338 | 12.22° C | 63% | 975.3 hPa | 0 mm | - | - | - |
| 1778093611 | 12.22° C | 61% | 975.3 hPa | 0 mm | - | - | - |
| 1778093430 | 12.22° C | 62% | 975.2 hPa | 0 mm | - | - | - |
| 1778092891 | 12.22° C | 60% | 975.3 hPa | 0 mm | - | - | - |
| 1778092711 | 12.22° C | 61% | 975.3 hPa | 0 mm | - | - | - |
| 1778092653 | 12.22° C | 61% | 975.2 hPa | 0 mm | - | - | - |
| 1778092592 | 12.22° C | 62% | 975.2 hPa | 0 mm | - | - | - |
| 1778092473 | 12.22° C | 60% | 975.2 hPa | 0 mm | - | - | - |
| 1778092295 | 12.22° C | 65% | 975.3 hPa | 0 mm | - | - | - |
| 1778092231 | 12.22° C | 64% | 975.3 hPa | 0 mm | - | - | - |
| 1778091991 | 11.67° C | 64% | 975.5 hPa | 0 mm | - | - | - |
| 1778091573 | 11.67° C | 63% | 975.4 hPa | 0 mm | - | - | - |
| 1778091331 | 11.67° C | 61% | 975.4 hPa | 0 mm | - | - | - |
| 1778091090 | 11.67° C | 60% | 975.4 hPa | 0 mm | - | - | - |
| 1778090792 | 11.67° C | 61% | 975.4 hPa | 0 mm | - | - | - |
| 1778090372 | 11.67° C | 61% | 975.4 hPa | 0 mm | - | - | - |
| 1778090250 | 11.67° C | 63% | 975.4 hPa | 0 mm | - | - | - |
| 1778090191 | 11.67° C | 60% | 975.4 hPa | 0 mm | - | - | - |
| 1778090132 | 11.67° C | 60% | 975.4 hPa | 0 mm | - | - | - |
* Rain latest hour (hover to see other rain measurements)
** Current wind speed in m/s (hover to see current wind gust speed)